Regional Weather Roundup
Issued by NWS

Home | Current Version | Previous Version | Graphics & Text | Print | Product List | Glossary On
Versions: 1 2 3 4 5 6 7 8 9 10 11 12 13 14 15 16 17 18 19 20 21 22 23 24 25 26 27 28 29 30 31 32 33 34 35 36 37 38 39 40 41 42 43 44 45 46 47 48 49 50
000
ASUS45 KSLC 220510
RWRUT

UTAH REGIONAL WEATHER ROUNDUP
NATIONAL WEATHER SERVICE SALT LAKE CITY UT
1100 PM MDT THU AUG 21 2014

UTZ001>011-023>025-220600-

NORTHERN UTAH

CITY           SKY/WX    TMP DP  RH WIND       PRES   REMARKS
HILL AFB       PTCLDY    68  49  49 E13       30.03F
LOGAN          MOCLDY    62  53  72 W7        30.06F
OGDEN          PTCLDY    64  50  60 SW6       30.01S
PROVO AIRPORT  PTCLDY    63  52  67 SW10      30.06S
SALT LAKE CITY MOCLDY    69  47  45 SE5       30.00S
VERNAL         MOCLDY    64  47  53 N12       30.16S
WENDOVER       CLOUDY    72  50  46 W7        30.02F
HEBER CITY     CLEAR     55  46  71 CALM      30.13R
WEST JORDAN    CLEAR     64  55  72 S7        30.03F

$$

UTZ012>022-026-027-220600-

SOUTHERN UTAH

CITY           SKY/WX    TMP DP  RH WIND       PRES   REMARKS
BRYCE CANYON   CLOUDY    53  44  71 W7        30.32S
CEDAR CITY     MOCLDY    61  49  64 SW7       30.17F
MILFORD        PTCLDY    67  49  52 S15       30.11F
MOAB/CYNLANDS  CLEAR     69  52  54 W10       30.05F
PRICE          MOCLDY    68  43  40 SE5       30.16F
ST GEORGE      CLEAR     73  52  46 SE7       30.06S
KANAB            N/A     63  52  67 NW3       30.22

$$

REGIONAL REPORTS     COLORADO/ARIZONA

CITY           SKY/WX    TMP DP  RH WIND       PRES   REMARKS
CRAIG, CO      MOCLDY    54  48  80 CALM      30.23F
GRAND JUNCTION MOCLDY    64  50  60 E6        30.09F
RIFLE          MOCLDY    66  48  52 SE6       30.15F
MONTROSE       CLOUDY    68  48  48 SE6       30.18F
CORTEZ         MOCLDY    66  43  43 E3        30.19S
PAGE, AZ       LGT RAIN  73  51  46 S6        30.15S
GRAND CANYON     N/A    N/A N/A N/A MISG        N/A
KINGMAN        PTCLDY    66  58  75 CALM      30.09R
FLAGSTAFF      CLOUDY    54  52  93 CALM      30.29F

$$

REGIONAL REPORTS    NEVADA/IDAHO/WYOMING

CITY           SKY/WX    TMP DP  RH WIND       PRES   REMARKS
LAS VEGAS, NV  PTCLDY    79  48  33 SW9       29.95R
ELY            PTCLDY    66  45  46 SE22G28   30.13S
ELKO           MOCLDY    69  44  40 NE3       30.01S
POCATELLO, ID  CLEAR     59  52  77 E16       30.07F
BURLEY         CLOUDY    62  51  67 W3        30.02R
EVANSTON, WY   PTCLDY    57  42  57 SE8       30.20F
ROCK SPRINGS   MOCLDY    53  44  71 S6        30.23S

$$



USA.gov is the U.S. government's official web portal to all federal, state and local government web resources and services.